Location: *
(50.0228°S, 177.2688°W)
Time: 03:53:45
(UTC+00:00)

Cosmos 2058 Rocket - Pass Details

Date: 07 April 2020
Orbit: 610 x 640 km, 82.5° (Epoch: 04 June)

Event Time Altitude Azimuth Distance (km) Brightness Sun altitude
Rises 06:27:07 0° 186° (S) 2,945 6.7 -11.1°
Reaches altitude 10° 06:29:26 10° 180° (S) 2,035 5.8 -11.5°
Maximum altitude 06:33:49 49° 105° (ESE) 832 3.3 -12.2°
Drops below altitude 10° 06:38:11 10° 29° (NNE) 2,026 5.4 -12.9°
Sets 06:40:29 0° 24° (NNE) 2,930 6.2 -13.3°
